UOSAT 2 (UO-11) (14781 NORAD) Tracking and Keplerian Element Data

This shows tracking and keplerian element data for the satellite.

Feedback or suggestion? Click here.




ElementValue
Catalog14781
NameUOSAT 2 (UO-11)
Epoch Orbit16598
Epoch Day286.90688954
Epoch Year2024
RAAN252.7973
Inclination97.7202
Eccentricity0.0009609
Argument of Perigee55.9368
Mean Anonmoly304.276
Mean Motion14.87669103
Decay Rate5.904E-05
L11 14781U 84021B 24286.90688954 .00005904 00000+0 65366-3 0 9993
L22 14781 97.7202 252.7973 0009609 55.9368 304.2760 14.87669103165981



Live tracking and technical data element details for UOSAT 2 (UO-11) (NORAD 14781). UOSAT 2 (UO-11) can be tracked NOW for your location showing map with azimuth and elevation plus other details from your city location.







IsCatalogInMostPopularTable: catalog: 14781, numindb: 772
Update: records affected: 1



GetName: 14781 UOSAT 2 (UO-11)

Hit Count: updated at: Wed, 04 Dec 2024 22:34:13 GMT